sat.trackr.live / text

‹ back to catalog

TIANMU-1 18

NORAD 58703 · 2024-004D

PAYLOAD ACTIVE UNKNOWN

§ Identity

Operator
Country
PRC
Launch date
2024-01-05
Launch site
JSC
Launch vehicle
Mass (kg)
RCS (m²)

Purposes: earth_obs

External: N2YO · Heavens-Above · Gunter

§ Orbital elements

Epoch: 2026-05-25T04:16:14.973312Z

Period
94.32 min
Inclination
97.4667°
Eccentricity
0.0005637
Mean motion
15.26733494 rev/d
Perigee alt
481.7 km
Apogee alt
489.5 km
Semi-major
6,863.7 km
B*
1.9524e-4
RAAN
331.3487°
Arg perigee
79.7787°
Mean anomaly
280.4087°
Rev number
13,226

§ Raw data

TIANMU-1 181 58703U 24004D   26145.17795108  .00005059  00000+0  19524-3 0  99912 58703  97.4667 331.3487 0005637  79.7787 280.4087 15.26733494132266

JSON: /api/v1/satellites/58703 · /tle

For live sub-satellite position, see the globe view (requires WebGL).

§ Visibility from observer

Set your observer location to see the next 7 days of passes ≥ 10°. The values pass through the URL so the page stays shareable.

No JS? Fill the form by hand. The geolocation button needs JavaScript.